Simultaneous Nadir Overpasses (SNOs) Predictions

Prediction of SNOs between GOES-16 and LANDSAT-8 Satellite Orbit:

Table of predicted SNOs for the next 14.0 days since TLE Epoch: 5/23/2025
Index Date Time (GOES-16) GOES-16 Lat,Lon LANDSAT-8 Lat,Lon Distance(km) Time Diff (sec)
1 05/25/2025 16:38:40 0.05, -98.54 -0.26, -97.10 164.30 80
2 05/26/2025 05:02:45 -0.05, -98.79 -0.80,-102.30 399.84 80
3 05/28/2025 04:47:58 -0.05, -99.83 0.07, -99.39 50.71 80
4 05/30/2025 16:59:47 0.04,-101.19 0.12,-101.65 51.66 80
5 06/01/2025 16:44:59 0.03,-102.25 -0.71, -98.73 399.86 80
6 06/02/2025 05:09:03 -0.03,-102.49 -0.34,-103.93 163.85 80
7 06/04/2025 04:54:16 -0.03,-103.56 0.50,-101.02 288.45 80
8 06/04/2025 17:18:12 0.02,-103.86 0.50,-106.19 264.32 80
9 06/06/2025 17:03:24 0.02,-104.93 -0.36,-103.28 188.30 80
